Time,TemperatureF,DewpointF,PressureIn,WindDirection,WindDirectionDegrees,WindSpeedMPH,WindSpeedGustMPH,Humidity,HourlyPrecipIn,Conditions,Clouds,dailyrainin,SoftwareType,DateUTC
2013-03-19 21:15:00,49.6,47.1,30.12,NNW,336,0.0,0.0,91,0.00,,,0.04,Wunderground v.1.15,2013-03-20 04:15:00,
2013-03-19 21:20:00,49.6,47.1,30.11,West,277,0.0,0.0,91,0.00,,,0.04,Wunderground v.1.15,2013-03-20 04:20:00,
2013-03-19 21:30:00,49.5,47.0,30.11,West,266,0.0,0.0,91,0.00,,,0.04,Wunderground v.1.15,2013-03-20 04:30:00,
2013-03-19 21:34:00,49.4,46.9,30.11,West,266,0.0,0.0,91,0.00,,,0.04,Wunderground v.1.15,2013-03-20 04:34:00,
2013-03-19 21:40:00,49.4,46.9,30.11,West,266,0.0,0.0,91,0.00,,,0.04,Wunderground v.1.15,2013-03-20 04:40:00,
2013-03-19 21:49:00,49.1,46.3,30.10,West,266,0.0,0.0,90,0.00,,,0.04,Wunderground v.1.15,2013-03-20 04:49:00,
2013-03-19 21:55:00,49.0,46.5,30.10,West,266,0.0,0.0,91,0.00,,,0.04,Wunderground v.1.15,2013-03-20 04:55:00,
2013-03-19 22:00:00,49.0,46.5,30.10,West,266,0.0,0.0,91,0.00,,,0.04,Wunderground v.1.15,2013-03-20 05:00:00,
2013-03-19 22:10:00,49.1,46.9,30.09,West,266,0.0,0.0,92,0.00,,,0.04,Wunderground v.1.15,2013-03-20 05:10:00,
2013-03-19 22:20:00,49.2,47.0,30.09,West,266,0.0,0.0,92,0.00,,,0.04,Wunderground v.1.15,2013-03-20 05:20:00,
2013-03-19 22:29:00,49.2,47.3,30.09,West,266,0.0,0.0,93,0.00,,,0.04,Wunderground v.1.15,2013-03-20 05:29:00,
2013-03-19 22:35:00,49.3,47.4,30.09,West,273,0.0,0.0,93,0.00,,,0.04,Wunderground v.1.15,2013-03-20 05:35:00,
2013-03-19 22:45:00,49.4,47.5,30.10,WSW,250,0.0,0.0,93,0.00,,,0.04,Wunderground v.1.15,2013-03-20 05:45:00,
2013-03-19 22:55:00,49.6,47.7,30.09,WSW,250,0.0,0.0,93,0.00,,,0.04,Wunderground v.1.15,2013-03-20 05:55:00,
2013-03-19 23:00:00,49.6,47.7,30.09,WSW,250,0.0,0.0,93,0.00,,,0.04,Wunderground v.1.15,2013-03-20 06:00:00,
2013-03-19 23:09:00,49.6,47.7,30.09,WSW,250,0.0,0.0,93,0.00,,,0.04,Wunderground v.1.15,2013-03-20 06:09:00,
2013-03-19 23:15:00,49.6,47.7,30.09,WSW,250,0.0,0.0,93,0.00,,,0.04,Wunderground v.1.15,2013-03-20 06:15:00,
2013-03-19 23:25:00,49.6,47.7,30.10,WSW,250,0.0,0.0,93,0.00,,,0.04,Wunderground v.1.15,2013-03-20 06:25:00,
2013-03-19 23:35:00,49.6,47.9,30.09,WSW,250,0.0,0.0,94,0.00,,,0.04,Wunderground v.1.15,2013-03-20 06:35:00,
2013-03-19 23:45:00,49.5,47.6,30.09,WSW,250,0.0,0.0,93,0.00,,,0.04,Wunderground v.1.15,2013-03-20 06:45:00,
2013-03-19 23:55:00,49.6,47.9,30.09,West,259,0.0,0.0,94,0.00,,,0.04,Wunderground v.1.15,2013-03-20 06:55:00,